カタログに戻る

CZ-6A DEB

運用中PO
NORAD 60897·DEBRIS·🇨🇳 China

打ち上げ Aug 6, 2024 から Taiyuan Satellite Launch Center

Loading…

次のパス (今後24時間)

TLE

最新Source: Space-Track

元期: Sep 14, 2026, 11:26 UTC

1 60897U 24140LC  26257.47683699  .00003674  00000-0  70073-3 0  9995
2 60897  89.0303 262.5748 0086472 312.3736  47.0178 14.61436673110168

AllMySatでCZ-6A DEBをリアルタイム追跡

Download on the App Store